{"data":{"norad_id":66557,"epoch":"2026-05-25T01:16:32.009664Z","epoch_age_seconds":77417,"freshness":"FRESH","line1":"1 66557U 25268A   26145.05314826  .00016420  00000+0  60479-3 0  9990","line2":"2 66557  43.0006 276.2318 0002050 262.4449  97.6170 15.27584167 29637","mean_motion":15.27584167,"eccentricity":0.000205,"inclination_deg":43.0006,"raan_deg":276.2318,"arg_perigee_deg":262.4449,"mean_anomaly_deg":97.617,"bstar":0.00060479,"rev_number":2963,"period_min":94.266491569364,"perigee_km":481.63007797914,"apogee_km":484.44315916275,"semimajor_km":6861.1736185709,"source":"CELESTRAK","updated_at":"2026-05-25T13:38:21.255866Z"}}